TOM645 KSFB-EGGD

Flight info

Callsign TOM645
Flight time N/A
Altitude 33000
Route BITHO AR6 MALET AR15 BAHAA Y493 WEAKK Y494 WHOOS/M084F330 Y494 VIRST M201 DRYED DCT GAYBL/N0493F350 N253B NICSO/M085F350 DCT 49N045W 50N037W 52N030W 52N022W/N0488F350 DCT RILED DCT LODLA DCT GOTEM DCT PENWU DCT BAJJA
Aircraft B763/H-SDE3FGHIM3RWXY/LB1

Departure

Time 2026-04-23 21:47
Airport Orlando Sanford International Airport (KSFB)

Arrival

Time N/A
Airport Bristol Airport (EGGD)
Time Latitude Longitude Altitude Speed Heading
2026-04-23 21:25 28.77680 -81.24134 55 ft 0 kts 165°
2026-04-23 21:35 28.77687 -81.24136 55 ft 2 kts 166°
2026-04-23 21:35 28.77701 -81.24140 55 ft 2 kts 166°
2026-04-23 21:35 28.77716 -81.24142 55 ft 2 kts 186°
2026-04-23 21:36 28.77744 -81.24130 55 ft 2 kts 219°
2026-04-23 21:36 28.77754 -81.24118 55 ft 2 kts 236°
2026-04-23 21:36 28.77761 -81.24103 55 ft 2 kts 252°
2026-04-23 21:37 28.77764 -81.24088 55 ft 1 kts 268°
2026-04-23 21:37 28.77764 -81.24083 55 ft 0 kts 271°
2026-04-23 21:37 28.77764 -81.24084 55 ft 0 kts 271°
2026-04-23 21:39 28.77764 -81.24102 55 ft 6 kts 271°
2026-04-23 21:39 28.77764 -81.24169 55 ft 9 kts 270°
2026-04-23 21:40 28.77764 -81.24269 56 ft 15 kts 270°
2026-04-23 21:40 28.77763 -81.24421 56 ft 21 kts 270°
2026-04-23 21:40 28.77762 -81.24581 57 ft 18 kts 270°
2026-04-23 21:40 28.77762 -81.24703 58 ft 4 kts 270°
2026-04-23 21:41 28.77769 -81.24734 59 ft 5 kts 294°
2026-04-23 21:41 28.77800 -81.24777 59 ft 7 kts 314°
2026-04-23 21:41 28.77831 -81.24813 59 ft 5 kts 314°
2026-04-23 21:41 28.77861 -81.24849 59 ft 6 kts 314°
2026-04-23 21:42 28.77902 -81.24898 59 ft 11 kts 314°
2026-04-23 21:42 28.77977 -81.24986 59 ft 19 kts 314°
2026-04-23 21:42 28.78050 -81.25075 59 ft 13 kts 304°
2026-04-23 21:42 28.78060 -81.25156 59 ft 8 kts 278°
2026-04-23 21:43 28.78064 -81.25221 59 ft 8 kts 269°
2026-04-23 21:43 28.78065 -81.25300 59 ft 12 kts 271°
2026-04-23 21:43 28.78065 -81.25401 59 ft 13 kts 270°
2026-04-23 21:43 28.78065 -81.25519 60 ft 10 kts 270°
2026-04-23 21:44 28.78083 -81.25577 60 ft 6 kts 329°
2026-04-23 21:44 28.78122 -81.25584 59 ft 5 kts 356°
2026-04-23 21:44 28.78160 -81.25583 59 ft 4 kts 12°
2026-04-23 21:44 28.78172 -81.25571 59 ft 1 kts 60°
2026-04-23 21:45 28.78173 -81.25565 59 ft 3 kts 78°
2026-04-23 21:45 28.78175 -81.25525 59 ft 0 kts 90°
2026-04-23 21:45 28.78175 -81.25504 59 ft 8 kts 90°
2026-04-23 21:45 28.78175 -81.25264 59 ft 54 kts 90°
2026-04-23 21:46 28.78176 -81.24644 56 ft 101 kts 89°
2026-04-23 21:46 28.78177 -81.23674 52 ft 142 kts 90°
2026-04-23 21:46 28.78185 -81.22496 140 ft 168 kts 89°
2026-04-23 21:46 28.78214 -81.21130 505 ft 179 kts 89°
2026-04-23 21:47 28.78255 -81.19666 894 ft 191 kts 89°
2026-04-23 21:47 28.78263 -81.18135 1242 ft 204 kts 98°
2026-04-23 21:47 28.77653 -81.16585 1400 ft 231 kts 131°
2026-04-23 21:47 28.76292 -81.15504 1917 ft 245 kts 150°
2026-04-23 21:48 28.74800 -81.14496 2518 ft 253 kts 143°
2026-04-23 21:48 28.73327 -81.13388 3224 ft 257 kts 146°
2026-04-23 21:48 28.71817 -81.12283 3932 ft 262 kts 146°
2026-04-23 21:48 28.70260 -81.11146 4660 ft 265 kts 147°
2026-04-23 21:49 28.68678 -81.09991 5003 ft 279 kts 144°
2026-04-23 21:49 28.67336 -81.08432 5006 ft 277 kts 118°
2026-04-23 21:49 28.66807 -81.06375 5149 ft 270 kts 91°
2026-04-23 21:49 28.67096 -81.04260 5339 ft 277 kts 73°
2026-04-23 21:50 28.67667 -81.02178 6129 ft 276 kts 75°
2026-04-23 21:50 28.68212 -81.00081 6860 ft 279 kts 74°
2026-04-23 21:50 28.68762 -80.97981 7557 ft 282 kts 74°
2026-04-23 21:50 28.69325 -80.95828 8229 ft 286 kts 74°
2026-04-23 21:51 28.69893 -80.93655 8921 ft 290 kts 74°
2026-04-23 21:51 28.70469 -80.91454 9573 ft 294 kts 74°